Location: *
(43.9900°N, 3.4811°E)
Time: 03:31:09
(UTC+00:00)

COSMOS 2428 - Pass Details

Date: 25 August 2019
Orbit: 846 x 856 km, 70.9° (Epoch: 14 October)

Event Time Altitude Azimuth Distance (km) Brightness Sun altitude
Rises 23:33:02 0° 336° (NNW) 3,418 6.8 -35.3°
Reaches altitude 10° 23:35:30 10° 338° (NNW) 2,478 5.8 -35.3°
Enters shadow 23:39:02 39° 348° (NNW) 1,250 3.9 -35.4°
